SCP
0 0 0 0 0 0 0 0 0 0 0 0 0 0 0 0 0 0 0 0 0 0 0 0 0 0 0 1 1 1 1 1 1 1 1 1 1 1
0 0 0 0 0 0 0 0 0 0 0 0 0 0 0 0 0 0 0 0 0 0 0 0 0 0 0 0 1 1 1 1 1 1 1 1 1 1
0 0 0 0 0 0 0 0 0 0 0 0 0 0 0 0 0 0 0 0 0 0 0 0 0 0 0 0 0 0 1 1 1 1 1 1 1 1
0 0 0 0 0 0 0 0 0 0 0 0 0 0 0 0 0 0 0 0 0 0 0 0 0 0 0 0 0 0 0 0 0 1 1 1 0 0
0 0 0 0 0 0 0 0 0 0 0 0 0 0 0 0 0 0 0 0 0 0 0 0 0 0 0 0 0 0 0 0 0 0 0 0 0 0
0 0 0 0 0 0 0 0 0 0 0 0 0 0 0 0 0 0 0 0 0 0 0 0 0 0 0 0 0 0 0 0 0 0 0 0 0 0
0 0 0 0 0 0 0 0 0 0 0 0 0 0 0 0 0 0 0 0 0 0 0 0 0 0 0 0 0 0 0 0 0 0 0 0 0 0
0 0 0 0 0 0 0 0 0 0 0 0 0 0 0 0 0 0 0 0 0 0 0 0 0 0 0 0 0 0 0 0 0 0 0 0 0 0
0 0 0 0 0 0 0 0 0 0 0 0 0 0 0 0 0 0 0 0 0 0 0 0 0 0 0 0 0 0 0 0 0 0 0 0 0 0
0 0 0 0 0 0 0 0 0 0 0 0 0 0 0 0 0 0 0 0 0 0 0 0 0 0 0 0 0 0 0 0 0 0 0 0 0 0
0 0 0 0 0 0 0 0 0 0 0 0 0 0 0 0 0 0 0 0 0 0 0 0 0 0 0 0 0 0 0 0 0 0 0 0 0 0
0 0 0 0 0 0 0 0 0 0 0 0 0 0 0 0 0 0 0 0 0 0 0 0 0 0 0 0 0 0 0 0 0 0 0 0 0 0
0 0 0 0 0 0 0 0 0 0 0 0 0 0 0 0 0 0 0 0 0 0 0 0 0 0 0 0 0 0 0 0 0 0 0 0 0 0
0 0 0 0 0 0 0 0 0 0 0 0 0 0 0 0 0 0 0 0 0 0 0 0 0 0 0 0 0 0 0 0 0 0 0 0 0 0
0 0 0 0 0 0 0 0 0 0 0 0 0 0 0 0 0 0 0 0 0 0 0 0 0 0 0 0 0 0 0 0 0 0 0 0 0 0
0 0 0 0 0 0 0 0 0 0 0 0 0 0 0 0 0 0 0 0 0 0 0 0 0 0 0 0 0 0 0 0 0 0 0 0 0 0
0 0 0 0 0 0 0 0 0 0 0 0 0 0 0 0 0 0 0 0 0 0 0 0 0 0 0 0 0 0 0 0 0 0 0 0 0 0
0 0 0 0 0 0 0 0 0 0 0 0 0 0 0 0 0 0 0 0 0 0 0 0 0 0 0 0 0 0 0 0 0 0 0 0 0 0
0 0 0 0 0 0 0 0 0 0 0 0 0 0 0 0 0 0 0 0 0 0 0 0 0 0 0 0 0 0 0 0 0 0 0 0 0 0
0 0 0 0 0 0 0 0 0 0 0 0 0 0 0 0 0 0 0 0 0 0 0 0 0 0 0 0 0 0 0 0 0 0 0 0 0 0
0 0 0 0 0 0 0 0 0 0 0 0 0 0 0 0 0 0 0 0 0 0 0 0 0 0 0 0 0 0 0 0 0 0 0 0 0 0
0 0 0 0 0 0 0 0 0 0 0 0 0 0 0 0 0 0 0 0 0 0 0 0 0 0 0 0 0 0 0 0 0 0 0 0 0 0
0 0 0 0 0 0 0 0 0 0 0 0 0 0 0 0 0 0 0 0 0 0 0 0 0 0 0 0 0 0 0 0 0 0 0 0 0 0
Wind_Speed
4 4 3 3 2 2 2 3 2 2 4 4 3 4 4 3 5 3 4 7 8 8 8 9 11 11 13 14 15 17 19 20 21 22 22 23 23 23
3 4 4 3 3 3 3 2 3 3 4 3 3 4 4 5 6 4 5 9 10 10 10 11 11 12 13 14 15 16 17 19 20 21 22 22 22 22
4 5 5 4 3 3 3 3 3 3 4 5 3 3 4 5 6 5 5 5 5 11 12 12 12 13 14 14 15 16 17 18 20 21 21 21 21 22
6 5 6 5 5 4 3 4 4 4 4 6 4 3 4 5 5 6 5 5 5 10 13 13 13 13 14 14 15 15 16 17 19 19 20 21 22 22
6 6 6 5 6 5 5 5 4 5 4 4 4 3 3 4 4 5 5 4 5 7 10 12 13 13 13 14 14 15 15 16 17 18 19 20 20 21
6 6 6 6 7 7 6 6 5 5 4 4 4 4 4 4 2 3 4 3 4 5 6 6 8 11 12 13 13 14 14 15 16 16 17 18 18 19
6 6 7 9 10 8 6 6 6 5 4 4 4 3 4 3 3 2 3 4 4 3 3 3 3 4 5 9 12 13 14 14 15 16 16 17 18 18
7 7 7 8 10 12 12 12 10 7 6 5 5 5 7 5 4 3 3 2 4 3 2 4 3 4 5 5 9 13 14 14 15 15 16 17 18 18
7 7 7 8 8 6 8 10 10 13 13 8 7 8 7 6 5 5 4 5 5 4 2 5 4 5 5 6 11 12 13 14 14 14 15 16 17 18
8 8 8 8 9 8 7 7 8 8 9 8 8 9 9 8 7 7 6 5 5 4 3 4 4 5 5 5 9 12 12 13 13 14 14 15 16 17
9 9 9 9 13 14 8 8 8 8 10 13 13 12 13 13 9 4 4 4 5 4 3 4 4 4 4 5 6 9 11 12 12 12 12 13 14 14
7 8 12 12 13 13 8 7 8 9 7 6 7 9 9 10 12 9 7 6 5 5 4 4 4 3 4 3 3 3 5 8 10 11 12 12 12 9
6 7 7 12 13 13 10 8 11 9 5 6 6 6 5 5 6 6 7 7 7 7 5 4 3 2 3 3 3 2 3 3 4 6 9 11 12 11
8 7 8 12 13 12 9 10 13 9 4 4 5 6 6 7 6 7 8 9 9 10 8 6 5 5 4 4 4 2 2 3 4 4 4 7 9 12
9 11 11 12 11 9 12 14 10 6 5 6 7 8 8 7 5 5 6 7 8 9 9 8 8 6 5 5 4 3 3 3 4 5 5 5 5 5
9 9 11 11 10 10 9 8 7 6 7 8 7 7 5 5 5 5 5 5 4 6 7 8 10 9 7 7 6 5 4 4 3 4 5 5 5 5
5 3 3 3 4 5 5 6 6 6 7 7 7 7 6 6 7 5 5 4 5 5 5 4 6 7 8 6 6 7 6 5 5 4 4 5 5 6
6 4 6 6 7 7 7 6 6 7 8 7 7 7 7 7 7 6 5 6 6 6 6 5 3 3 3 5 9 7 6 6 5 5 4 5 5 5
6 6 7 7 8 7 7 7 7 7 7 7 7 8 7 7 7 6 6 6 7 7 6 5 5 6 6 6 5 9 7 5 5 5 5 5 5 4
7 8 9 8 8 8 8 8 7 6 6 6 7 7 7 7 7 7 7 8 7 6 6 5 6 7 8 7 5 4 9 7 6 6 5 3 1 1
9 9 9 8 8 8 8 7 7 7 7 6 6 7 6 7 7 8 7 10 9 7 7 8 8 10 5 3 3 3 3 6 6 4 5 4 3 3
8 9 8 8 8 7 7 6 6 7 7 6 6 6 6 6 8 8 7 7 7 8 8 7 5 5 5 6 6 5 4 3 2 5 4 2 3 6
8 8 7 7 7 6 5 6 7 7 6 6 6 6 6 6 6 7 7 7 7 7 7 5 4 5 6 7 6 5 6 5 4 3 2 7 4 1
Wind_Direction
249 249 242 247 238 226 205 186 197 277 291 286 298 307 310 300 294 286 278 272 267 262 258 253 249 246 243 239 235 231 226 222 220 218 217 216 216 217
242 246 250 248 251 246 232 213 190 203 255 268 267 281 301 307 301 287 270 273 267 263 259 256 252 248 245 242 239 234 229 223 220 217 215 214 214 215
250 243 249 247 246 249 244 236 224 201 246 270 261 279 291 295 301 291 279 267 264 262 260 258 254 250 245 241 240 237 232 226 221 217 216 215 214 214
243 242 249 250 246 245 240 241 241 225 228 267 278 282 281 286 288 292 288 279 265 265 261 259 255 251 246 241 239 238 234 229 222 218 216 216 215 215
233 232 240 241 248 246 241 241 243 249 227 242 266 265 274 284 299 297 292 288 283 274 266 259 256 252 247 242 240 238 234 230 225 220 218 216 216 215
232 230 232 231 236 242 244 240 239 244 243 244 259 268 271 279 288 294 306 304 296 292 283 275 265 258 250 245 241 237 233 230 227 224 222 220 218 216
237 237 237 238 238 237 238 234 230 231 235 239 252 265 269 277 273 271 285 297 294 280 301 298 289 272 257 247 242 237 231 229 227 225 223 221 220 219
237 243 248 253 255 255 255 249 230 223 227 230 238 242 253 249 249 253 263 295 298 292 317 296 286 276 264 247 242 237 233 229 227 227 225 223 221 220
233 238 250 252 250 249 261 267 258 244 230 221 229 238 242 238 236 252 246 239 245 259 286 282 279 273 264 257 250 243 235 229 227 228 228 227 224 222
232 231 236 249 253 245 249 257 255 253 243 233 227 236 237 235 225 232 241 251 257 257 228 261 273 268 268 257 252 246 239 230 229 229 230 230 227 223
238 235 232 241 251 250 246 249 258 262 257 243 234 237 240 240 232 228 240 245 266 266 220 227 259 267 266 258 249 241 239 233 232 234 233 231 229 224
246 241 237 240 248 251 234 232 245 254 257 263 252 251 248 249 243 225 222 231 242 259 234 212 242 245 276 265 248 238 240 240 236 236 236 233 225 222
243 245 241 239 241 243 231 221 235 243 245 245 251 255 252 245 242 229 219 220 225 237 231 200 231 228 240 281 283 245 230 233 226 235 234 231 223 215
233 238 238 238 238 238 235 234 243 249 242 244 249 252 249 248 244 237 231 229 229 235 234 206 219 226 235 252 264 267 244 232 226 232 229 223 226 225
232 233 233 238 239 243 244 243 244 235 227 237 246 250 244 243 241 243 247 241 241 242 240 217 216 224 219 231 243 243 252 244 223 229 227 221 218 210
231 237 239 244 243 243 249 250 236 224 221 234 242 249 247 239 239 235 241 243 248 259 247 226 218 218 227 231 231 239 226 232 228 223 227 228 220 215
196 208 225 233 239 243 245 244 238 229 230 235 240 246 246 244 246 234 229 229 232 247 257 246 225 219 218 211 225 233 231 232 228 217 219 233 227 216
171 208 225 228 235 241 244 246 238 233 232 231 233 236 240 242 246 238 224 226 236 241 241 236 218 214 235 243 221 227 225 227 224 212 211 228 235 214
188 221 229 232 235 237 237 240 243 239 232 229 233 234 235 238 239 239 233 231 236 238 237 224 206 202 223 242 245 215 213 214 207 211 214 218 227 214
215 225 231 233 233 235 237 238 243 243 234 231 233 234 233 234 237 238 234 232 235 235 237 225 213 210 216 223 224 226 209 203 203 211 207 197 199 154
221 227 231 232 233 234 235 236 237 239 236 230 231 233 232 232 238 239 236 234 230 230 232 233 229 219 211 182 200 224 217 207 201 199 186 180 184 183
227 228 230 230 231 233 233 232 234 237 236 234 235 236 235 232 237 239 235 232 228 226 231 235 222 193 186 200 213 208 197 171 111 93 76 108 185 189
229 230 231 230 229 228 228 231 235 239 237 235 235 237 237 236 236 236 235 233 229 227 226 226 211 196 202 204 203 194 184 178 164 138 54 8 346 241